Location: Unspecified
(50.0000°N, 15.0000°E)
Time: 02:11:41
(UTC+02:00)

ISS - Pass Details

Date: 23 September 2021
Orbit: 417 x 423 km, 51.6° (Epoch: 24 October)

Event Time Altitude Azimuth Distance (km) Brightness Sun altitude
Rises 20:04:56 0° 259° (W) 2,359 1.4 -11.9°
Reaches altitude 10° 20:07:01 10° 261° (W) 1,497 0.2 -12.2°
Maximum altitude 20:10:23 77° 347° (NNW) 435 -3.7 -12.7°
Enters shadow 20:12:37 20° 73° (ENE) 1,046 -2.2 -13.1°
